This demonstration page uses our WeatherBlox Daily Observations layout. Learn more.

Left ArrowRight Arrow

38.80484, -77.04692

Hourly Observations for April 26, 2017

Temp ( °F °C ) Dew Point ( °F °C ) Humidity (%) Winds ( mph kmh ) Pressure ( in mb ) Visibility ( mi km ) Precip ( " mm )
12:52 am 00:52 Cloudy with Drizzle 59 15 58 14.4 96 96 NNW 8 13 29.73 1007 5 8 0.01 0.25
1:11 am 01:11 Cloudy with Drizzle 59 15 59 15 100 100 NNW 8 13 29.74 1007 7 11 0.00 0.00
1:33 am 01:33 Cloudy 59 15 58 14.4 96 96 NNW 9 15 29.71 1006 10 16 0.00 0.03
1:41 am 01:41 Cloudy 59 15 58 14.4 96 96 NNW 9 15 29.71 1006 10 16 0.00 0.03
1:52 am 01:52 Cloudy 59 15 58 14.4 96 96 N 8 13 29.71 1006 10 16 0.00 0.03
1:59 am 01:59 Cloudy 59 15 58 14.4 96 96 N 8 13 29.71 1006 10 16 0.00 0.00
2:09 am 02:09 Cloudy 59 15 58 14.4 96 96 N 7 11 29.71 1006 10 16 0.00 0.00
2:21 am 02:21 Cloudy 59 15 58 14.4 96 96 N 10 17 29.71 1006 10 16 0.00 0.00
2:50 am 02:50 Cloudy 59 15 57 14 94 94 N 10 17 29.71 1006 10 16 0.00 0.00
2:52 am 02:52 Cloudy 59 15 58 14.4 96 96 N 10 17 29.70 1006 10 16 0.00 0.00
3:19 am 03:19 Cloudy 59 15 58 14.4 96 96 N 13 20 29.71 1006 10 16 0.00 0.03
3:52 am 03:52 Cloudy with Mist and Fog 59 15 58 14.4 96 96 N 9 15 29.70 1006 5 8 0.00 0.03
4:34 am 04:34 Cloudy with Light Rain 59 15 57 14 94 94 N 10 17 29.71 1006 10 16 0.00 0.00
4:43 am 04:43 Cloudy with Light Rain 59 15 58 14.4 96 96 NNW 8 13 29.71 1006 6 10 0.01 0.25
4:52 am 04:52 Cloudy with Light Rain 59 15 58 14.4 96 96 NNW 9 15 29.71 1006 6 10 0.01 0.25
5:36 am 05:36 Cloudy 59 15 57 14 94 94 NNW 9 15 29.71 1006 10 16 0.00 0.00
5:52 am 05:52 Cloudy 58 14.4 57 13.9 97 97 NNW 8 13 29.71 1006 10 16 0.00 0.03
6:52 am 06:52 Cloudy 59 15 57 13.9 93 93 NNW 9 15 29.73 1007 7 11 0.00 0.00
7:52 am 07:52 Cloudy 59 15 57 13.9 93 93 NW 10 17 29.75 1008 7 11 0.00 0.00
8:42 am 08:42 Cloudy 59 15 57 14 94 94 NNW 9 15 29.77 1008 10 16 0.00 0.00
8:52 am 08:52 Cloudy 60 15.6 57 13.9 90 90 NNW 9 15 29.77 1008 10 16 0.00 0.00
9:52 am 09:52 Cloudy 60 15.6 57 13.9 90 90 NW 9 15 29.78 1009 10 16 0.00 0.00
10:44 am 10:44 Cloudy 63 17 57 14 83 83 NW 9 15 29.80 1009 10 16 0.00 0.00
10:52 am 10:52 Cloudy 63 17.2 57 13.9 81 81 NNW 10 17 29.80 1009 10 16 0.00 0.00
11:52 am 11:52 Cloudy 66 18.9 58 14.4 75 75 NNW 6 9 29.79 1009 10 16 0.00 0.00
12:52 pm 12:52 Cloudy 66 18.9 57 13.9 73 73 N 8 13 29.78 1009 10 16 0.00 0.00
1:52 pm 13:52 Cloudy 68 20 58 14.4 70 70 NNW 7 11 29.78 1008 10 16 0.00 0.00
2:52 pm 14:52 Cloudy 68 20 58 14.4 70 70 W 6 9 29.78 1008 10 16 0.00 0.00
3:52 pm 15:52 Cloudy 69 20.6 58 14.4 68 68 NW 6 9 29.78 1008 10 16 0.00 0.00
4:52 pm 16:52 Mostly Cloudy 70 21.1 59 15 68 68 NE 6 9 29.77 1008 10 16 0.00 0.00
5:52 pm 17:52 Mostly Cloudy 71 21.7 60 15.6 68 68 ENE 7 11 29.77 1008 10 16 0.00 0.00
6:52 pm 18:52 Mostly Cloudy 69 20.6 60 15.6 73 73 ENE 7 11 29.78 1009 10 16 0.00 0.00
7:52 pm 19:52 Mostly Cloudy 67 19.4 59 15 76 76 E 7 11 29.80 1009 10 16 0.00 0.00
8:52 pm 20:52 Mostly Cloudy 64 17.8 60 15.6 87 87 ESE 5 7 29.81 1010 10 16 0.00 0.00
9:52 pm 21:52 Mostly Cloudy 63 17.2 59 15 87 87 SE 3 6 29.83 1010 10 16 0.00 0.00
10:52 pm 22:52 Clear 62 16.7 59 15 90 90 SSE 3 6 29.84 1011 10 16 0.00 0.00
11:52 pm 23:52 Clear 61 16.1 58 14.4 90 90 SSE 3 6 29.84 1011 10 16 0.00 0.00

Powered by AerisWeather